Terminal Aerodrome Forecast
Issued by NWS Northern Indiana

Home | Current Version | Previous Version | Graphics & Text | Print | Product List | Glossary On
Versions: 1 2 3 4 5 6 7 8 9 10 11 12 13 14 15 16 17 18
000
FTUS43 KIWX 252339
TAFFWA
TAF
KFWA 252339Z 2600/2624 15010KT P6SM SCT250
     FM261300 17014G22KT P6SM BKN150
     FM261900 19016G24KT P6SM SCT040 BKN100=

USA.gov is the U.S. government's official web portal to all federal, state and local government web resources and services.